Location: ???????
(38.3360°N, 23.6977°E)
Time: 05:47:28
(UTC+00:00)

Cosmos 2058 - Pass Details

Date: 17 November 2025
Orbit: 529 x 540 km, 82.5° (Epoch: 09 December)

Event Time Altitude Azimuth Distance (km) Brightness Sun altitude
Rises 16:03:23 0° 3° (N) 2,702 6.2 -10.4°
Reaches altitude 10° 16:05:44 10° 13° (NNE) 1,808 5.2 -10.9°
Maximum altitude 16:09:19 32° 78° (ENE) 949 3.5 -11.6°
Drops below altitude 10° 16:12:53 10° 142° (SE) 1,800 5.2 -12.2°
Sets 16:15:11 0° 152° (SSE) 2,688 6.2 -12.7°
